User: anonymous   Login
Location: Unspecified
(0.0000°N, 0.0000°E)
Time: 20:36:27
(UTC+00:00)
Language:

WGS F3 (USA 211) - Orbit

View from above orbital plane
View from above orbital plane
View from above satellite
View from above satellite

Ground track
Ground track

The orbit data is extracted from the following two-line orbital elements,

1 36108U 09068A   17051.35570890 0.00000000  00000-0  00000-0 0    05
2 36108   0.0097 266.4746 0003615  19.8240 340.2154  1.00270000    09
Epoch (UTC): 20 February 2017 08:32:13
Eccentricity: 0.0003615
inclination: 0.0097°
perigee height: 35771 km
apogee height: 35802 km
right ascension of ascending node: 266.4746°
argument of perigee: 19.8240°
revolutions per day: 1.00270000
mean anomaly at epoch: 340.2154°
orbit number at epoch: 0

The dashed part of the orbit path shows where the satellite is in the earth's shadow,  

DLR